[[{"header":{"parameterUnit":"m.s-1","parameterCategory":1,"la1":30.2991,"la2":30.254,"lo1":-89.0895,"lo2":-89.0444,"dy":0.0017,"dx":0.0017,"nx":28,"ny":28,"refTime":"2025-07-10T03:00:00:Z","depth":0,"parameterNumber":2,"parameterNumberName":"U-component_of_WINDS"},"data":[0,0,0,0,0,0,0,0,0,0,0,0,0,0,0,0,0,0,0,0,0,0,0,0,0,0,0,0,0,0,0,0,0,0,0,0,0,0,0,0,0,0,0,0,0,0,0,0,0,0,0,0,0,0,0,0,0,0,3.3997,3.3997,0,3.4026,3.4027,3.4027,3.3993,3.3991,3.399,3.3989,3.4025,3.4027,3.4029,0,0,0,0,0,0,0,0,0,0,0,0,0,3.3917,3.3919,3.3997,3.3997,3.3998,3.4026,3.4027,3.4027,3.3993,3.3991,3.399,3.3988,3.4024,3.4027,3.4029,0,0,0,0,0,0,0,0,0,0,0,0,0,3.395,3.3919,3.3997,3.3984,3.3983,3.4026,3.4027,3.4027,3.3993,3.3991,3.3989,3.3987,3.4023,3.4027,3.403,3.4089,0,0,3.404,3.4041,0,0,0,0,0,0,0,0,3.3948,3.3953,3.3985,3.3985,3.3984,3.4004,3.4012,3.4048,3.3994,3.3989,3.3989,3.3986,3.402,3.4023,3.4033,3.4091,3.4092,3.404,3.4042,3.4043,3.4044,0,0,0,0,0,0,0,3.3946,3.3951,3.4009,3.3986,3.3985,3.3979,3.3981,3.4019,3.4016,3.399,3.3987,3.3991,3.4019,3.403,3.4034,3.4093,3.404,3.4043,3.4045,3.4046,3.4203,3.4205,0,0,0,0,0,0,3.3944,3.395,3.4008,3.401,3.3961,3.3982,3.3984,3.3999,3.4015,3.4015,3.3992,3.3989,3.4026,3.403,3.4035,3.4107,3.4043,3.4046,3.4048,3.4201,3.4203,3.4206,0,0,0,0,0,0,3.3943,3.395,3.4007,3.3979,3.3986,3.3985,3.4002,3.4001,3.4012,3.4017,3.4017,3.4004,3.4024,3.403,3.4076,3.4108,3.4048,3.4051,3.4198,3.4202,3.4205,3.4251,0,0,0,0,0,0,3.3941,3.3949,3.397,3.398,3.3987,3.4045,3.4004,3.4003,3.4017,3.4013,3.4028,3.4028,3.4023,3.4071,3.4079,3.4111,3.4053,3.4195,3.42,3.4204,3.4247,3.4255,3.4263,0,0,0,0,0,3.3938,3.3983,3.3972,3.3979,3.4013,3.4047,3.4052,3.4043,3.402,3.4042,3.4045,3.4028,3.4103,3.4076,3.4085,3.4118,3.4193,3.4198,3.4203,3.4243,3.4254,3.4263,0,0,0,0,0,0,3.3979,3.3984,3.3971,3.4021,3.4033,3.4041,3.4069,3.4054,3.4076,3.4071,3.4061,3.4065,3.4114,3.412,3.4091,3.4178,3.4145,3.4151,3.4172,3.4182,3.419,3.4188,3.4056,0,0,0,0,0,3.3994,3.4019,3.4022,3.4066,3.4073,3.407,3.4084,3.4076,3.409,3.4096,3.4103,3.4118,3.4146,3.4164,3.4189,3.4247,3.4251,3.4274,3.4283,3.4289,3.4296,3.4329,3.4341,3.4222,3.4222,3.4222,0,0,3.4025,3.4031,3.4048,3.4074,3.4083,3.4112,3.4075,3.4106,3.4128,3.4101,3.4145,3.415,3.4167,3.422,3.4243,3.4227,3.4329,3.4296,3.4301,3.4304,3.4336,3.4347,3.4357,3.4225,3.4225,3.4224,0,0,3.4097,3.4102,3.414,3.4149,3.4163,3.4161,3.417,3.418,3.4182,3.4225,3.4206,3.4233,3.4279,3.4293,3.4306,3.4383,3.4369,3.4392,3.4435,3.4468,3.4477,3.4486,3.4515,3.4526,3.4398,3.4398,3.4398,0,3.4135,3.4175,3.4162,3.4194,3.4208,3.4183,3.4223,3.4233,3.4255,3.4266,3.4247,3.4305,3.4315,3.4371,3.439,3.4401,3.4413,3.4391,3.4476,3.4485,3.4492,3.4521,3.4532,3.4401,3.4401,3.44,3.44,0,3.4221,3.425,3.4279,3.4299,3.4315,3.4351,3.4346,3.4365,3.4355,3.4356,3.4401,3.4412,3.444,3.4452,3.4444,3.4508,3.4497,3.4477,3.4444,3.4507,3.4533,3.4544,3.4405,3.4404,3.4403,3.4402,0,0,3.4321,3.4333,3.4345,3.4354,3.4367,3.439,3.4426,3.4451,3.4468,3.4484,3.4516,3.4556,3.4538,3.4553,3.4546,3.4574,3.4638,3.4551,3.4551,3.4569,3.4712,3.4728,3.4741,3.4627,3.4629,3.4631,3.4711,0,3.4395,3.4455,3.4444,3.4504,3.4531,3.4508,3.454,3.4553,3.4554,3.4579,3.4582,3.4611,3.4583,3.4592,3.4619,3.4624,3.4667,3.4618,3.4659,3.4661,3.4658,3.4754,3.4771,3.4846,3.4721,3.4723,3.4724,0,3.4489,3.4507,3.4568,3.4578,3.459,3.4618,3.4641,3.4664,3.4679,3.4678,3.4695,3.4683,3.4722,3.4686,3.474,3.4708,3.4724,3.4729,3.4732,3.4737,3.4698,3.4764,3.487,3.4882,3.474,3.4739,3.4737,0,3.4558,3.4598,3.464,3.4649,3.4661,3.4682,3.4688,3.4701,3.4717,3.4738,3.4749,3.4774,3.4789,3.481,3.4807,3.4781,3.4863,3.4827,3.4866,3.4866,3.4886,3.4885,3.4998,3.4893,3.4893,3.4893,3.4892,0,3.4643,3.4682,3.4672,3.4698,3.4742,3.4731,3.4775,3.4779,3.4791,3.4819,3.4801,3.4829,3.4821,3.4849,3.4846,3.4893,3.4899,3.4902,3.4901,3.4905,3.4905,3.4917,3.4912,3.4896,3.4895,3.4894,3.4894,0,3.4729,3.4723,3.4768,3.4776,3.4778,3.4811,3.4818,3.4844,3.4844,3.488,3.4888,3.4889,3.4921,3.4918,3.4955,3.4954,3.5012,3.5004,3.5006,3.5006,3.5046,3.5043,3.5172,3.5189,3.5071,3.5072,3.5073,0,3.4784,3.4814,3.4824,3.4841,3.4848,3.4875,3.4892,3.4881,3.49,3.4919,3.4943,3.4973,3.4997,3.5049,3.5055,3.5083,3.5077,3.512,3.5082,3.5085,3.5081,3.508,3.5084,3.5129,3.513,3.5131,3.5132,0,3.4884,3.488,3.4903,3.4925,3.4944,3.4962,3.4978,3.4993,3.4985,3.5006,3.5038,3.5056,3.5093,3.5124,3.5151,3.516,3.5146,3.5144,3.5155,3.516,3.5161,3.5163,3.503,3.5142,3.5141,3.514,3.514,3.5139,3.4958,3.4984,3.4995,3.5022,3.5032,3.5047,3.5072,3.5075,3.51,3.5128,3.5121,3.5157,3.5173,3.5207,3.5219,3.5249,3.5233,3.5249,3.5253,3.5258,3.5263,3.5154,3.5253,3.5253,3.5253,3.5253,3.5252,0,3.5059,3.5065,3.5089,3.5111,3.5133,3.5114,3.5131,3.5151,3.5183,3.5197,3.522,3.5258,3.5287,3.5295,3.5324,3.5347,3.5341,3.5355,3.5354,3.5357,3.5274,3.5263,3.5359,3.5359,3.5359,3.5359,3.5359,3.5359,3.5114,3.5157,3.5155,3.5203,3.5209,3.5243,3.5254,3.5269,3.5281,3.5323,3.5347,3.535,3.5363,3.5393,3.542,3.5422,3.5434,3.5451,3.5451,3.5373,3.5363,3.5353,3.5342,3.5454,3.5454,3.5532,3.5532,3.5533]},{"header":{"parameterUnit":"m.s-1","parameterCategory":1,"la1":30.2991,"la2":30.254,"lo1":-89.0895,"lo2":-89.0444,"dy":0.0017,"dx":0.0017,"nx":28,"ny":28,"refTime":"2025-07-10T03:00:00:Z","depth":0,"parameterNumber":3,"parameterNumberName":"V-component_of_WINDS"},"data":[0,0,0,0,0,0,0,0,0,0,0,0,0,0,0,0,0,0,0,0,0,0,0,0,0,0,0,0,0,0,0,0,0,0,0,0,0,0,0,0,0,0,0,0,0,0,0,0,0,0,0,0,0,0,0,0,0,0,1.0495,1.0496,0,1.0581,1.0582,1.0583,1.061,1.0609,1.0609,1.0608,1.0692,1.0695,1.0697,0,0,0,0,0,0,0,0,0,0,0,0,0,1.0348,1.0351,1.0495,1.0496,1.0498,1.0581,1.0582,1.0583,1.061,1.0609,1.0609,1.0608,1.0691,1.0694,1.0697,0,0,0,0,0,0,0,0,0,0,0,0,0,1.0421,1.0352,1.0495,1.0521,1.0524,1.0581,1.0582,1.0584,1.061,1.0609,1.0609,1.0608,1.069,1.0694,1.0698,1.0734,0,0,1.071,1.0712,0,0,0,0,0,0,0,0,1.0417,1.0426,1.0516,1.0519,1.0523,1.0584,1.0561,1.0634,1.061,1.0577,1.0608,1.0608,1.0656,1.0663,1.068,1.0738,1.0742,1.071,1.0713,1.0714,1.0715,0,0,0,0,0,0,0,1.0412,1.0423,1.0529,1.0517,1.0521,1.0526,1.0536,1.0575,1.0619,1.058,1.0582,1.0592,1.0658,1.0677,1.0682,1.0743,1.071,1.0714,1.0716,1.0717,1.0831,1.0832,0,0,0,0,0,0,1.0403,1.0418,1.0526,1.0532,1.0467,1.0529,1.054,1.0565,1.0619,1.0626,1.0592,1.0593,1.067,1.0678,1.0686,1.073,1.0714,1.0718,1.072,1.083,1.0831,1.0832,0,0,0,0,0,0,1.04,1.0412,1.0523,1.0476,1.049,1.0532,1.056,1.0567,1.0586,1.0628,1.0636,1.0604,1.067,1.068,1.0721,1.0733,1.072,1.0723,1.083,1.0831,1.0832,1.082,0,0,0,0,0,0,1.0395,1.0411,1.0427,1.0476,1.0493,1.0559,1.0561,1.0569,1.0593,1.0594,1.0641,1.0648,1.067,1.0715,1.0725,1.0738,1.0726,1.0829,1.083,1.0831,1.0819,1.082,1.0821,0,0,0,0,0,1.039,1.042,1.0428,1.0441,1.0514,1.056,1.0569,1.0596,1.0594,1.0609,1.0635,1.0646,1.073,1.0719,1.0731,1.0745,1.0828,1.083,1.0831,1.0819,1.082,1.0821,0,0,0,0,0,0,1.0371,1.0427,1.0436,1.0483,1.0517,1.0565,1.0585,1.0597,1.0631,1.0631,1.0661,1.0671,1.0709,1.0731,1.0718,1.0781,1.0779,1.0783,1.0766,1.0768,1.0768,1.0762,1.0729,0,0,0,0,0,1.0372,1.0407,1.0453,1.049,1.0506,1.0542,1.0564,1.0581,1.0617,1.0631,1.0661,1.0693,1.0727,1.0748,1.0782,1.0822,1.0831,1.0837,1.0838,1.0839,1.0842,1.0862,1.0865,1.0837,1.0837,1.0837,0,0,1.0375,1.041,1.043,1.0487,1.0515,1.0548,1.0554,1.059,1.0614,1.0636,1.0677,1.0699,1.0737,1.0778,1.0797,1.0797,1.0851,1.084,1.0841,1.0843,1.0864,1.0867,1.0869,1.0838,1.0838,1.0838,0,0,1.0397,1.0428,1.0461,1.0488,1.0531,1.0554,1.0562,1.0608,1.0624,1.0666,1.0682,1.071,1.0767,1.0793,1.0814,1.0842,1.0853,1.0852,1.0857,1.0877,1.0879,1.0881,1.089,1.0893,1.0855,1.0855,1.0855,0,1.0395,1.0447,1.0476,1.051,1.0534,1.0555,1.0587,1.0612,1.0663,1.0677,1.0677,1.0748,1.0775,1.0821,1.0828,1.0844,1.0852,1.0847,1.0876,1.0879,1.0881,1.089,1.0893,1.0854,1.0854,1.0854,1.0855,0,1.0441,1.0477,1.0499,1.0548,1.0573,1.0607,1.0638,1.066,1.0674,1.0696,1.0737,1.077,1.0809,1.0821,1.0836,1.0868,1.0867,1.0871,1.0869,1.0883,1.0891,1.0895,1.0854,1.0854,1.0854,1.0854,0,0,1.0456,1.0519,1.0526,1.0547,1.0594,1.0622,1.0654,1.0694,1.0711,1.0744,1.0771,1.0818,1.0821,1.0845,1.0861,1.0879,1.0897,1.088,1.0882,1.0881,1.0933,1.0929,1.0933,1.0904,1.0904,1.0905,1.0929,0,1.0483,1.0544,1.0569,1.0618,1.065,1.0669,1.0697,1.0727,1.0748,1.0777,1.0799,1.0832,1.0835,1.0849,1.0867,1.0891,1.0907,1.0889,1.0927,1.0928,1.0917,1.0938,1.0935,1.0956,1.0933,1.0933,1.0934,0,1.0524,1.0558,1.061,1.0651,1.0666,1.0691,1.0727,1.0755,1.0789,1.0802,1.0827,1.0843,1.0875,1.087,1.0914,1.0901,1.0917,1.0931,1.0932,1.0937,1.0932,1.0942,1.0964,1.0967,1.094,1.0939,1.0939,0,1.0528,1.0586,1.0625,1.0642,1.0692,1.0708,1.0729,1.0763,1.0784,1.0815,1.0828,1.0862,1.0881,1.0906,1.0929,1.0924,1.0969,1.0967,1.098,1.0979,1.0989,1.0988,1.1013,1.1,1.1,1.1,1.1,0,1.0556,1.0586,1.0627,1.065,1.0684,1.0711,1.0743,1.0765,1.0794,1.082,1.0838,1.0861,1.0891,1.0917,1.0935,1.0967,1.0975,1.0986,1.099,1.0985,1.0983,1.0996,1.0995,1.1001,1.1001,1.1,1.1,0,1.0566,1.0594,1.0637,1.068,1.0691,1.0714,1.0749,1.0771,1.0792,1.0825,1.0834,1.0867,1.0899,1.0924,1.0966,1.0977,1.1011,1.1016,1.1,1.1002,1.1013,1.1011,1.1047,1.1053,1.1036,1.1036,1.1036,0,1.0582,1.0606,1.0651,1.0671,1.0692,1.0723,1.0744,1.077,1.0792,1.0831,1.0847,1.0881,1.0909,1.0959,1.0985,1.1016,1.1022,1.1032,1.1027,1.1019,1.1021,1.1019,1.1021,1.1033,1.1033,1.1033,1.1033,0,1.0607,1.0619,1.0651,1.0686,1.0712,1.0741,1.077,1.0784,1.0815,1.0838,1.0872,1.0893,1.0935,1.0968,1.1001,1.102,1.1031,1.1034,1.1039,1.1033,1.1022,1.1027,1.1001,1.1033,1.1033,1.1033,1.1033,1.1033,1.062,1.0642,1.0676,1.071,1.0735,1.0761,1.0783,1.0807,1.0836,1.0873,1.0886,1.092,1.095,1.0996,1.1015,1.1041,1.1041,1.1048,1.105,1.1051,1.105,1.1018,1.1047,1.1047,1.1047,1.1047,1.1047,0,1.0645,1.0668,1.0699,1.0739,1.0765,1.0773,1.0805,1.0826,1.0856,1.0884,1.0911,1.0948,1.0979,1.1006,1.1038,1.1052,1.1058,1.106,1.1059,1.1063,1.1048,1.1041,1.1055,1.1055,1.1055,1.1055,1.1055,1.1055,1.0661,1.0698,1.0714,1.0761,1.0783,1.0818,1.0835,1.0858,1.0881,1.0922,1.0948,1.0966,1.0993,1.1026,1.1053,1.1061,1.1071,1.1071,1.1079,1.1065,1.1064,1.1063,1.1056,1.1073,1.1073,1.1092,1.1092,1.1093]}]]